Wind_Speed
83 81 78 77 77 76 76 75 74 72 70 68 66 65 64 63 64 65 65 64 62 60 59 56 53 51 50 48 46 45 44 42 41 38 36 35 35 34 34 34 35 35 35
87 86 83 80 78 77 78 78 77 76 75 73 71 69 68 66 65 65 66 66 65 64 63 61 58 56 54 51 49 48 46 44 43 40 38 37 37 36 35 34 34 35 36
80 78 77 75 74 73 75 77 79 80 79 77 75 73 72 70 68 66 66 67 66 65 66 64 62 60 58 55 53 50 49 47 45 43 41 40 39 39 37 35 34 33 34
65 65 65 65 65 66 68 72 76 79 81 81 79 78 76 74 72 70 68 67 66 65 66 68 66 63 61 59 56 54 51 49 47 45 44 42 42 42 40 37 36 34 33
58 57 56 56 56 57 60 65 71 76 80 83 83 82 80 78 76 74 72 70 67 65 64 66 68 66 64 61 59 57 54 51 49 47 46 45 44 44 42 39 38 37 35
58 56 54 53 53 53 54 56 63 71 77 83 85 85 84 82 80 78 76 74 70 68 65 64 66 67 66 64 62 59 56 53 51 49 48 47 45 45 45 42 40 39 37
60 58 57 54 53 52 52 52 54 61 72 81 85 87 87 86 84 82 80 77 74 70 66 65 63 66 68 66 64 62 59 56 53 51 50 48 46 46 47 45 43 41 39
58 58 59 57 55 53 52 51 51 53 60 72 82 88 89 88 88 86 84 81 78 74 70 67 64 64 66 68 66 64 61 58 55 53 52 50 47 47 48 48 46 44 41
52 53 54 56 56 56 54 53 51 50 51 59 72 84 90 92 90 88 86 84 82 79 75 70 67 65 66 68 68 65 64 61 58 56 55 52 50 46 47 51 49 47 45
48 48 48 50 54 56 56 55 53 51 50 51 59 74 86 92 93 91 88 87 85 82 80 76 72 68 65 67 69 67 65 64 61 59 57 55 51 49 45 52 52 50 48
47 46 46 45 47 51 55 56 55 52 51 48 51 61 76 88 93 93 90 89 87 85 82 79 77 72 67 66 68 69 67 66 64 61 59 57 54 51 47 48 54 53 51
45 45 44 44 44 45 49 54 55 53 51 49 47 51 64 79 90 94 93 90 89 86 83 79 77 75 71 69 68 68 69 68 67 65 62 59 57 53 50 48 50 54 54
43 42 42 42 42 42 44 48 52 53 51 49 47 46 53 67 83 92 94 91 89 87 84 81 77 75 73 72 70 68 69 69 69 68 65 62 59 56 52 50 48 50 52
43 42 40 38 39 40 41 43 48 50 50 48 46 44 45 55 72 87 93 92 90 89 86 82 78 74 72 73 73 70 68 68 69 69 67 64 61 58 55 52 50 48 48
44 43 41 38 36 36 38 40 44 48 48 46 44 42 42 46 59 76 89 92 92 90 88 85 80 75 71 70 72 71 69 67 68 70 69 66 63 60 57 55 52 50 48
45 43 42 39 35 33 34 37 40 44 46 45 42 40 39 40 49 64 79 89 91 91 89 86 84 80 75 70 69 69 69 68 67 68 69 67 65 62 60 58 56 53 51
46 44 42 39 35 32 32 33 36 41 43 43 40 38 37 37 41 52 67 80 87 90 90 87 85 83 80 75 70 69 68 66 66 66 67 67 66 64 63 61 59 57 55
48 46 43 39 35 32 30 31 33 37 40 41 40 37 36 35 36 43 55 68 79 86 89 89 86 85 83 80 75 71 68 66 66 66 66 66 66 65 64 63 62 60 58
52 49 45 40 35 31 29 29 30 33 38 40 39 37 36 34 34 38 45 57 68 77 84 87 86 85 84 82 79 75 71 68 67 66 66 65 65 64 64 64 62 61 59
55 51 46 40 34 30 28 27 28 30 35 38 39 38 36 34 33 35 39 46 56 66 75 81 84 84 84 82 80 77 74 70 69 68 66 65 63 63 63 63 63 62 61
56 50 42 35 30 28 26 26 26 28 33 37 39 38 37 36 34 34 36 39 46 54 63 71 77 80 82 82 80 77 75 72 70 68 67 66 64 62 62 62 62 62 62
53 43 33 25 23 23 23 24 25 26 31 36 39 39 38 37 36 35 35 37 40 45 52 59 65 71 76 79 78 76 74 73 71 70 67 66 65 64 62 61 61 61 61
46 33 22 14 14 17 20 21 23 24 29 35 39 39 39 38 37 36 36 36 38 41 45 50 57 63 68 74 75 75 74 72 70 69 68 67 66 65 64 62 61 62 61
41 28 16 8 7 13 17 18 20 22 26 33 38 40 39 39 37 36 36 35 36 37 39 43 49 54 59 64 68 70 70 70 69 68 68 67 66 65 64 64 63 62 62
40 27 16 7 2 8 12 15 17 20 24 31 38 40 40 40 39 37 36 34 34 34 35 37 42 47 52 57 61 65 67 67 66 67 67 66 66 65 65 65 65 65 64
42 29 19 10 3 2 7 10 13 17 22 29 35 40 41 41 40 39 37 35 33 32 31 32 34 40 47 53 58 62 62 62 62 64 64 64 64 65 65 65 65 65 65
Wind_Direction
280 277 273 268 265 262 260 258 256 254 252 250 248 245 243 242 241 239 238 236 234 234 234 233 234 235 236 235 234 234 234 236 237 239 239 237 235 233 232 231 229 228 227
282 279 276 272 266 261 257 255 253 251 250 248 246 245 243 241 240 239 238 236 234 233 233 233 233 234 235 235 234 232 232 234 236 238 238 237 235 233 231 230 228 226 226
284 280 278 274 269 264 258 254 250 248 247 246 244 243 242 240 239 238 238 236 235 233 232 232 232 233 235 235 234 232 230 232 234 237 237 237 236 232 229 228 225 224 223
283 280 277 273 269 264 259 254 249 246 244 242 241 240 239 238 237 237 237 236 236 234 232 230 230 231 233 234 234 233 231 231 233 235 237 237 236 232 227 225 224 222 221
283 280 277 274 270 266 260 253 248 245 242 240 238 237 237 236 236 236 235 235 236 235 234 231 228 229 231 233 234 233 232 231 232 234 236 237 237 231 224 223 223 221 220
283 280 277 274 270 267 264 258 250 244 240 238 236 235 234 234 234 234 234 234 234 235 234 233 230 228 228 231 232 233 232 232 232 234 236 236 235 230 221 220 220 219 218
282 279 275 273 269 267 264 261 256 248 240 236 235 233 232 232 232 232 233 233 233 233 234 233 232 229 227 228 231 232 233 232 232 234 235 236 236 230 221 217 217 216 216
284 279 275 271 268 265 262 261 259 254 247 239 235 231 230 229 229 230 231 231 231 231 231 232 232 230 227 227 229 231 233 232 232 233 236 237 237 234 223 217 215 215 215
289 283 277 271 267 263 260 259 258 257 253 246 238 233 229 228 227 227 228 230 230 230 230 230 231 231 229 227 227 229 231 232 231 232 234 237 238 238 228 218 216 215 215
296 290 282 275 267 262 259 257 256 256 255 252 246 237 231 227 226 224 226 227 229 229 228 228 228 229 228 228 226 227 229 231 231 231 233 235 237 239 234 220 216 216 217
300 295 289 281 272 264 258 255 253 253 253 253 250 244 235 229 225 224 223 225 226 227 228 228 227 227 227 228 228 227 227 229 229 230 231 233 235 236 236 227 219 218 219
305 299 292 285 278 268 259 254 251 250 251 251 252 249 241 233 227 223 221 222 224 225 226 227 227 227 227 228 228 228 227 227 228 228 229 230 232 234 235 233 227 221 221
313 306 297 288 280 272 262 253 248 247 247 248 250 251 246 237 230 224 221 220 222 223 224 225 226 226 227 228 229 229 228 226 226 227 228 229 230 232 232 233 233 229 226
318 315 308 297 284 274 264 254 246 243 243 245 248 251 249 241 232 226 222 219 219 220 221 222 223 224 225 227 228 229 228 227 226 227 228 228 229 230 231 232 233 234 232
321 318 314 307 293 278 265 255 247 241 240 241 244 247 249 244 235 228 223 219 218 218 220 220 220 221 222 224 226 228 228 227 226 227 228 228 228 229 230 232 233 236 236
320 319 316 311 301 285 269 256 247 240 238 238 240 243 246 245 237 229 225 221 218 217 218 219 219 219 219 221 223 226 227 228 227 227 227 228 228 229 230 232 233 235 237
319 317 315 312 304 291 274 258 247 240 235 235 237 239 241 242 238 231 226 223 220 218 217 217 219 219 219 219 221 223 225 226 227 228 228 228 228 229 230 232 234 235 237
318 315 312 309 304 294 278 261 248 238 233 231 233 235 236 237 235 230 226 223 221 219 217 217 218 219 220 219 220 222 224 225 226 228 229 229 229 229 231 232 234 236 237
317 312 309 304 299 292 280 263 248 237 230 227 228 229 231 231 231 228 224 222 221 221 219 218 218 220 220 221 221 222 224 225 226 228 229 230 230 230 231 232 234 236 237
316 311 305 298 291 284 276 263 248 234 226 223 222 224 225 225 225 224 222 219 219 220 220 219 218 219 221 222 222 223 224 225 226 227 228 229 230 231 231 232 233 235 236
319 312 303 292 281 273 267 260 247 232 222 218 217 218 219 220 220 220 219 216 216 217 219 220 220 220 221 222 223 224 225 226 227 227 228 229 230 231 231 232 233 234 236
326 319 307 290 270 258 253 251 245 230 219 215 213 213 214 216 217 217 216 214 212 213 215 218 219 220 220 221 222 223 225 226 228 228 229 229 230 230 231 232 233 234 235
337 332 320 294 259 241 238 240 241 228 216 211 209 209 210 212 213 214 214 213 211 211 212 214 217 218 219 220 222 223 225 227 229 230 231 231 231 232 232 233 233 234 235
350 349 342 316 248 229 229 233 236 226 215 209 206 205 206 208 210 211 211 211 211 210 211 213 215 216 218 219 221 223 224 226 229 230 231 233 234 234 235 235 235 235 236
1 3 3 1 256 224 226 230 232 224 214 208 204 203 204 205 207 208 209 209 209 210 210 213 214 213 214 214 216 219 221 222 224 227 230 233 233 234 234 236 237 238 238
9 11 15 21 26 234 232 233 233 223 215 209 204 202 202 203 205 206 206 206 207 208 210 212 212 210 210 210 211 213 215 217 220 223 225 227 230 232 231 232 234 236 237
Height
5679 5678 5678 5680 5682 5685 5689 5693 5696 5701 5706 5710 5714 5720 5725 5730 5735 5741 5747 5753 5759 5764 5770 5776 5781 5786 5791 5796 5801 5806 5811 5816 5820 5824 5828 5832 5836 5839 5843 5847 5850 5854 5857
5651 5650 5649 5650 5653 5658 5662 5667 5671 5678 5683 5689 5695 5701 5708 5713 5719 5725 5731 5737 5744 5750 5756 5763 5770 5775 5780 5785 5791 5796 5802 5807 5811 5816 5820 5824 5828 5832 5836 5840 5843 5847 5851
5624 5622 5622 5622 5624 5628 5633 5639 5645 5652 5659 5666 5674 5681 5688 5696 5702 5708 5715 5721 5728 5735 5741 5749 5756 5763 5769 5774 5780 5786 5792 5797 5802 5807 5812 5816 5820 5825 5829 5833 5837 5841 5845
5600 5598 5597 5597 5598 5601 5605 5610 5617 5625 5633 5642 5651 5659 5667 5676 5684 5691 5698 5705 5713 5720 5726 5734 5742 5750 5757 5763 5769 5775 5781 5787 5793 5798 5803 5808 5812 5816 5821 5826 5831 5835 5839
5580 5578 5577 5576 5576 5577 5579 5583 5589 5596 5606 5615 5625 5635 5645 5655 5665 5674 5682 5690 5697 5704 5711 5718 5727 5736 5744 5751 5758 5764 5770 5777 5783 5789 5794 5799 5803 5808 5813 5819 5824 5828 5833
5561 5559 5558 5557 5557 5557 5557 5559 5563 5570 5578 5587 5598 5610 5622 5634 5644 5654 5664 5673 5681 5689 5697 5704 5712 5722 5731 5739 5746 5753 5760 5767 5774 5779 5785 5790 5794 5799 5805 5811 5816 5821 5826
5542 5540 5539 5539 5538 5538 5539 5539 5542 5546 5552 5560 5571 5585 5599 5611 5622 5633 5643 5654 5664 5673 5682 5690 5698 5707 5716 5725 5733 5741 5748 5756 5763 5770 5775 5780 5786 5790 5796 5802 5808 5814 5819
5521 5519 5518 5518 5519 5520 5521 5522 5523 5526 5531 5536 5545 5558 5573 5587 5596 5611 5622 5634 5645 5656 5665 5674 5683 5692 5701 5711 5720 5729 5736 5744 5752 5759 5765 5771 5776 5781 5787 5793 5800 5806 5812
5501 5498 5497 5497 5498 5500 5502 5504 5506 5509 5512 5516 5521 5531 5545 5558 5574 5589 5601 5614 5624 5635 5647 5657 5668 5677 5686 5696 5706 5715 5724 5732 5740 5748 5755 5761 5767 5772 5778 5785 5791 5798 5804
5484 5480 5477 5476 5477 5479 5482 5486 5489 5492 5495 5499 5502 5508 5519 5532 5548 5565 5579 5592 5603 5616 5628 5640 5651 5661 5671 5681 5691 5701 5710 5719 5727 5736 5744 5751 5757 5763 5768 5775 5782 5789 5795
5469 5464 5460 5458 5458 5459 5462 5466 5470 5474 5478 5481 5485 5489 5496 5507 5522 5540 5557 5569 5582 5597 5609 5621 5633 5644 5656 5666 5676 5687 5696 5705 5714 5723 5731 5739 5746 5753 5759 5765 5772 5779 5785
5455 5449 5445 5442 5440 5440 5442 5446 5452 5457 5461 5464 5468 5471 5476 5485 5499 5514 5533 5547 5561 5578 5591 5603 5616 5629 5640 5651 5662 5672 5682 5691 5700 5709 5718 5727 5735 5742 5749 5755 5761 5769 5775
5442 5436 5431 5427 5425 5424 5425 5428 5433 5438 5443 5448 5452 5455 5458 5465 5476 5491 5509 5527 5541 5558 5572 5586 5600 5613 5625 5636 5646 5656 5667 5677 5687 5695 5705 5714 5722 5731 5738 5745 5751 5758 5765
5430 5423 5417 5413 5410 5408 5408 5410 5415 5421 5426 5432 5436 5440 5443 5447 5455 5469 5486 5504 5520 5536 5552 5569 5583 5596 5609 5620 5631 5641 5652 5663 5673 5682 5691 5701 5710 5719 5727 5734 5740 5747 5754
5419 5412 5405 5400 5396 5393 5393 5395 5398 5404 5410 5416 5422 5426 5429 5432 5438 5449 5464 5481 5500 5516 5533 5551 5565 5579 5591 5603 5615 5626 5637 5648 5658 5668 5677 5688 5698 5707 5715 5723 5730 5736 5743
5409 5401 5394 5388 5383 5380 5379 5380 5384 5388 5395 5402 5408 5413 5416 5419 5424 5432 5444 5460 5478 5497 5514 5532 5546 5560 5573 5587 5600 5611 5622 5633 5643 5653 5664 5674 5684 5694 5702 5711 5718 5726 5732
5397 5390 5383 5377 5371 5367 5366 5367 5370 5375 5381 5388 5395 5400 5405 5408 5412 5419 5429 5443 5459 5476 5496 5514 5527 5542 5557 5572 5585 5597 5607 5619 5629 5639 5650 5660 5671 5681 5690 5698 5706 5714 5721
5385 5377 5370 5365 5360 5356 5354 5354 5357 5362 5369 5376 5383 5389 5394 5399 5403 5408 5416 5428 5442 5459 5478 5497 5511 5526 5541 5556 5569 5581 5593 5604 5615 5626 5636 5646 5657 5667 5677 5685 5693 5701 5709
5370 5362 5355 5351 5347 5344 5342 5342 5345 5350 5357 5364 5372 5378 5385 5390 5395 5400 5406 5416 5429 5444 5461 5479 5496 5511 5526 5540 5554 5566 5578 5589 5601 5612 5622 5632 5643 5654 5664 5672 5681 5688 5696
5352 5343 5337 5334 5332 5331 5330 5331 5334 5339 5345 5353 5361 5369 5375 5382 5387 5393 5399 5407 5418 5432 5447 5464 5481 5495 5510 5524 5537 5551 5564 5575 5586 5598 5609 5619 5630 5640 5650 5660 5669 5676 5683
5331 5321 5315 5314 5315 5317 5319 5320 5323 5328 5335 5342 5351 5359 5367 5374 5380 5386 5393 5401 5411 5422 5435 5450 5466 5480 5494 5508 5524 5537 5549 5560 5571 5583 5595 5607 5619 5629 5637 5646 5654 5662 5670
5311 5300 5295 5296 5299 5303 5307 5309 5313 5319 5325 5332 5341 5350 5359 5366 5374 5380 5388 5395 5404 5413 5425 5438 5451 5465 5479 5493 5507 5520 5533 5546 5558 5571 5582 5593 5604 5614 5624 5633 5641 5650 5657
5297 5287 5283 5283 5287 5292 5296 5301 5305 5310 5317 5324 5333 5342 5351 5359 5367 5375 5382 5390 5398 5406 5416 5427 5438 5450 5463 5479 5494 5509 5520 5532 5545 5557 5569 5579 5590 5600 5610 5619 5627 5635 5643
5290 5281 5278 5278 5281 5285 5290 5294 5298 5303 5309 5316 5325 5334 5344 5352 5360 5369 5377 5385 5392 5401 5410 5419 5429 5441 5452 5466 5480 5494 5506 5519 5531 5542 5554 5565 5575 5586 5596 5605 5613 5621 5630
5290 5282 5278 5278 5280 5283 5286 5290 5293 5298 5303 5310 5319 5328 5337 5345 5354 5362 5371 5379 5387 5394 5402 5410 5419 5429 5441 5455 5467 5479 5492 5504 5516 5527 5539 5549 5560 5571 5581 5589 5598 5607 5616
5293 5286 5282 5281 5282 5283 5286 5288 5291 5295 5299 5306 5313 5321 5330 5339 5347 5356 5365 5373 5381 5389 5396 5403 5411 5420 5430 5441 5453 5465 5479 5492 5504 5514 5525 5536 5546 5556 5565 5574 5583 5593 5602